Location: Chiroubles
(46.1812°N, 4.6660°E)
Time: 03:39:27
(UTC+00:00)

Cosmos 1821 Rocket - Pass Details

Date: 15 August 2020
Orbit: 946 x 1004 km, 82.9° (Epoch: 25 September)

Event Time Altitude Azimuth Distance (km) Brightness Sun altitude
Rises 19:08:58 0° 176° (S) 3,622 6.7 -3.9°
Reaches altitude 10° 19:11:27 10° 173° (S) 2,687 6.0 -4.3°
Maximum altitude 19:17:31 64° 94° (E) 1,069 4.0 -5.2°
Drops below altitude 10° 19:23:43 10° 14° (NNE) 2,746 6.5 -6.2°
Sets 19:26:17 0° 12° (NNE) 3,706 7.3 -6.6°
